Flight Track Log - Related Links

Times and Time Zones

All times are in EDT time to prevent confusion due to time zone crossing. See the N375KD flight status page for this flight to view local times or setup timezone preferences in your user account.

Time Position Orientation Groundspeed Altitude Reporting Facility
EDT Latitude Longitude Course Direction KTS MPH feet Rate Location/Type
03:04PM 32.8167 -117.1833 292° West 162 186 1,800  Level Southern California TRACON
03:05PM 32.8333 -117.2333 292° West 207 238 3,900 1,698 Climbing Southern California TRACON
03:06PM 32.8511 -117.2756 297° West 206 237 4,800 1,570 Climbing Los Angeles Center
03:07PM 32.8925 -117.2414 35° Northeast 211 243 6,700 1,984 Climbing Los Angeles Center
03:08PM 32.9200 -117.1689 66° East 201 231 8,900 1,984 Climbing Los Angeles Center
03:09PM 32.9439 -117.1056 66° East 199 229 10,800 1,500 Climbing Los Angeles Center
03:10PM 32.9683 -117.0414 66° East 208 239 12,000 1,279 Climbing Los Angeles Center
03:11PM 32.9944 -116.9733 65° Northeast 220 253 13,700 1,533 Climbing Los Angeles Center
03:12PM 33.0247 -116.8933 66° East 221 254 15,500 1,536 Climbing Los Angeles Center
03:13PM 33.0500 -116.8258 66° East 223 257 16,900 1,306 Climbing Los Angeles Center
03:14PM 33.0750 -116.7583 66° East 222 255 18,200 1,355 Climbing Los Angeles Center
03:15PM 33.1058 -116.6764 66° East 224 258 19,700 1,355 Climbing Los Angeles Center
03:16PM 33.1328 -116.6067 65° Northeast 229 264 21,000 1,258 Climbing Los Angeles Center
03:17PM 33.1775 -116.5547 44° Northeast 227 261 22,300 960 Climbing Los Angeles Center
03:18PM 33.2308 -116.5114 34° Northeast 231 266 23,000 336 Climbing Los Angeles Center
03:19PM 33.2931 -116.4589 35° Northeast 265 305 23,000  Level Los Angeles Center
03:20PM 33.3628 -116.4008 35° Northeast 296 341 23,000  Level Los Angeles Center
03:21PM 33.4358 -116.3400 35° Northeast 314 361 23,000  Level Los Angeles Center
03:22PM 33.5233 -116.2658 35° Northeast 320 368 23,000  Level Los Angeles Center
03:24PM 33.5978 -116.2036 35° Northeast 324 373 23,000 -48 Level Los Angeles Center
03:25PM 33.6708 -116.1428 35° Northeast 321 369 22,900 -48 Descending Los Angeles Center
03:26PM 33.7456 -116.0800 35° Northeast 324 373 22,900 48 Level Los Angeles Center
03:27PM 33.8192 -116.0169 35° Northeast 326 375 23,000 48 Climbing Los Angeles Center
03:28PM 33.8919 -115.9561 35° Northeast 321 369 23,000  Level Los Angeles Center
03:29PM 33.9775 -115.8831 35° Northeast 315 362 23,000  Level Los Angeles Center
03:30PM 34.0472 -115.8242 35° Northeast 309 356 23,000  Level Los Angeles Center
03:31PM 34.1167 -115.7650 35° Northeast 307 353 23,000  Level Los Angeles Center
03:32PM 34.1811 -115.6961 41° Northeast 308 354 23,000  Level Los Angeles Center
03:33PM 34.2422 -115.6200 46° Northeast 312 359 23,000  Level Los Angeles Center
03:34PM 34.3178 -115.5386 42° Northeast 306 352 23,000  Level Los Angeles Center
03:35PM 34.3986 -115.4981 22° Northeast 311 358 23,000  Level Los Angeles Center
03:36PM 34.4803 -115.4603 21° North 312 359 23,000  Level Los Angeles Center
03:37PM 34.5636 -115.4239 20° North 316 364 23,000  Level Los Angeles Center
03:38PM 34.6464 -115.3878 20° North 317 365 23,000  Level Los Angeles Center
03:39PM 34.7292 -115.3506 20° North 317 365 23,000  Level Los Angeles Center
03:40PM 34.8114 -115.3144 20° North 314 361 23,000  Level Los Angeles Center
03:41PM 34.9097 -115.2725 19° North 312 359 23,000 -97 Level Los Angeles Center
03:42PM 34.9919 -115.2356 20° North 314 361 22,800 -438 Descending Los Angeles Center
03:43PM 35.0767 -115.1983 20° North 322 371 22,000 -964 Descending Los Angeles Center
03:44PM 35.1831 -115.2256 348° North 341 392 20,600 -1,306 Descending Los Angeles Center
03:45PM 35.2581 -115.2922 324° Northwest 332 382 19,300 -1,220 Descending Los Angeles Center
03:46PM 35.3342 -115.3603 324° Northwest 322 371 18,200 -973 Descending Los Angeles Center
03:47PM 35.3989 -115.4211 323° Northwest 318 366 17,500 -931 Descending Los Angeles Center
03:48PM 35.4703 -115.4903 322° Northwest 325 374 16,400 -1,105 Descending Los Angeles Center
03:49PM 35.4867 -115.5044 325° Northwest 323 372 16,100 -1,574 Descending Los Angeles Center
03:49PM 35.5478 -115.5603 323° Northwest 324 373 14,800 -1,326 Descending Los Angeles Center
03:50PM 35.5767 -115.5697 345° North 324 373 14,200 -1,393 Descending Los Angeles Center
03:50PM 35.6150 -115.5625 North 291 335 13,500 -1,429 Descending Los Angeles Center
03:51PM 35.6689 -115.5500 11° North 281 323 12,700 -1,273 Descending Los Angeles Center
03:51PM 35.7014 -115.5425 11° North 271 312 12,100 -1,258 Descending Los Angeles Center
03:52PM 35.7425 -115.5300 14° North 274 315 11,400 -1,180 Descending Los Angeles Center
03:52PM 35.7731 -115.5139 23° Northeast 273 314 10,900 -1,452 Descending Los Angeles Center
03:53PM 35.8258 -115.4872 22° Northeast 271 312 9,900 -566 Descending Los Angeles Center
03:54PM 35.8914 -115.4525 23° Northeast 266 306 9,900 48 Level Los Angeles Center
03:55PM 35.9511 -115.4225 22° Northeast 252 290 10,000 48 Climbing Los Angeles Center
03:56PM 36.0064 -115.4019 17° North 226 260 10,000 -435 Level Los Angeles Center
03:57PM 36.0658 -115.3894 10° North 216 249 9,100 -912 Descending Los Angeles Center
03:58PM 36.1389 -115.3717 11° North 223 257 8,100 -1,344 Descending Los Angeles Center
03:59PM 36.1867 -115.3422 26° Northeast 208 239 6,300 -1,597 Descending Los Angeles Center
04:00PM 36.2344 -115.3092 29° Northeast 201 231 4,800 -1,258 Descending Los Angeles Center
04:01PM 36.2575 -115.2703 54° Northeast 164 189 3,700 -1,073 Descending Los Angeles Center
04:02PM 36.2311 -115.2264 127° Southeast 134 154 2,600 -726 Descending Los Angeles Center
04:03PM 36.2103 -115.1950 129° Southeast 130 150 2,200 -381 Descending Los Angeles Center

Login

Don't have an account? Register now (free) for customized features, flight alerts, and more!